Showing default

IRIDE-MS2-HEO-2, 64569

Orbit data source: Space-Track

IRIDE-MS2-HEO-2, 64569 is an Italian payload satellite in SSO that was launched on Mon, 23 Jun 2025 UTC via an FALCON 9 launch vehicle from the Air Force Western Test Range (AFWTR). Payload-class satellites include a variety of spacecraft equipped with specific instruments for various scientific and technological missions. These include communications satellites like Starlink; space stations such as the ISS; scientific satellites like the Hubble; Earth observation satellites from companies like Planet Labs, Umbra, and HawkEye 360; GPS; miniature CubeSats for education and research; and military/defense satellites.

Loading next visibility...
Identifier
64569, 2025-135AT
Orbit
SSO
Country
Flag of ITIT
Related business
Manufacturer
ArgoTec
Mission
Operational Civil Imaging
Bus & Motor
HAWK, Unknown motor
Mass
65 kg wet, 65 kg dry
Launch date (UTC)
2025-06-23 (1 year ago)
Launch vehicle
FALCON 9
Launch site
Air Force Western Test Range (AFWTR)
Object type
Payload
Rocket body
Debris
Shape & HBR
Box + 2 Pan, 3.0 m
Radar Cross Section
0.683 m², Medium (>0.1 m² and < 1m²)

Expand to show TLE details & history
Last TLE update: 16 hours ago

TLE from 16 hours ago
0 IRIDE-MS2-HEO-2
1 64569U 25135AT  26207.58409286  .00002190  00000-0  21192-3 0  9995
2 64569  97.7784 321.4604 0001420 166.8861 193.2396 14.93784913 59766
Epoch: 2026-07-26T14:01Z
TLE epoch observation values (Epoch: 2026-07-26T14:01:05.623Z)
Latitude
Longitude
166.90704°
Altitude
590.154 km
Speed
7.564 km/s
True Right ascension
21h 25m 50s
True Declination
0° 00' 00"
Sunlit
Object was in full shadow at epoch
Visualization orbit readout
Latitude
Unknown
Longitude
Unknown
Altitude
Unknown
Speed
Unknown
Apparent Right ascension
Unknown
Apparent Declination
Unknown
Sunlit
N/A
Visualization observer readout
Local Sidereal Time
19:11:37
Azimuth
Unknown
Elevation
Unknown
Doppler factor
Unknown
Orbital elements
Apogee altitude
584.152 km
Perigee altitude
582.175 km
Semi-major axis
6,961.301 km
Eccentricity
0.00014
Inclination
97.7784°
RAAN
321.4604°
Arg. of periapsis
166.8861°
True anomaly
193.23587°
Mean anomaly
193.2396°
Eccentric anomaly
193.23774°
Mean motion
3.73687 °/min
Orbital period
96.34 mins
BSTAR
0.00021192
Loading maneuver chart data...
Computing Atmospheric mass density...
Loading historical data...
Loading historical data...
Loading historical data...
Loading historical data...
Loading historical data...
Loading historical data...
Loading historical data...

Documentation

Showing up to 5 results
|